Lake Lanier Weather Center

Moon Phase Calendar



Lake Lanier Water Level
Online Cameras

 


      

Current Conditions in Olde Federal Pointe
5/9/2021 8:42:17 AM

55°F
Feels Like 54
Clear
Humidity
71%
Pressure
30.09"
Wind
4.7 mph (SW)
Dew Point
46°F
UV Index
1/10 (Low)
Visibility
6 mi

Hourly Forecast

Date & Time Sun, May 9
8:00 AM
Sun, May 9
9:00 AM
Sun, May 9
10:00 AM
Sun, May 9
11:00 AM
Sun, May 9
12:00 PM
Sun, May 9
1:00 PM
Sun, May 9
2:00 PM
Sun, May 9
3:00 PM
Sun, May 9
4:00 PM
Sun, May 9
5:00 PM
Sun, May 9
6:00 PM
Sun, May 9
7:00 PM
Sun, May 9
8:00 PM
Sun, May 9
9:00 PM
Sun, May 9
10:00 PM
Sun, May 9
11:00 PM
Mon, May 10
12:00 AM
Mon, May 10
1:00 AM
Mon, May 10
2:00 AM
Mon, May 10
3:00 AM
Mon, May 10
4:00 AM
Mon, May 10
5:00 AM
Mon, May 10
6:00 AM
Mon, May 10
7:00 AM
Mon, May 10
8:00 AM
Mon, May 10
9:00 AM
Mon, May 10
10:00 AM
Mon, May 10
11:00 AM
Mon, May 10
12:00 PM
Mon, May 10
1:00 PM
Mon, May 10
2:00 PM
Mon, May 10
3:00 PM
Mon, May 10
4:00 PM
Mon, May 10
5:00 PM
Mon, May 10
6:00 PM
Mon, May 10
7:00 PM
Mon, May 10
8:00 PM
Mon, May 10
9:00 PM
Mon, May 10
10:00 PM
Mon, May 10
11:00 PM
Tue, May 11
12:00 AM
Tue, May 11
1:00 AM
Tue, May 11
2:00 AM
Tue, May 11
3:00 AM
Tue, May 11
4:00 AM
Tue, May 11
5:00 AM
Tue, May 11
6:00 AM
Tue, May 11
7:00 AM
Condition
Clouds

Clear

Clouds

Clouds

Clouds

Clouds

Clouds

Clouds

Clouds

Clouds

Clouds

Clouds

Clouds

Clouds

Clouds

Clouds

Clouds

Clouds

Clouds

Clouds

Clouds

Rain

Clouds

Clouds

Clouds

Clouds

Clouds

Clouds

Clouds

Rain

Rain

Rain

Rain

Rain

Rain

Rain

Clouds

Clouds

Clouds

Clouds

Clouds

Clouds

Clouds

Clouds

Clouds

Clouds

Clouds

Clouds
Temperature 55°F55°F57°F61°F67°F73°F79°F80°F81°F82°F80°F75°F71°F68°F66°F68°F68°F70°F69°F67°F65°F63°F63°F63°F64°F67°F67°F67°F70°F75°F76°F73°F76°F73°F71°F68°F66°F64°F62°F61°F61°F59°F58°F57°F56°F55°F55°F54°F
Feels Like 54°F54°F56°F60°F66°F72°F79°F80°F80°F81°F80°F75°F71°F67°F66°F67°F68°F69°F69°F67°F65°F63°F63°F63°F65°F67°F67°F67°F70°F75°F76°F74°F76°F73°F72°F68°F67°F64°F62°F61°F62°F59°F58°F57°F56°F55°F54°F54°F
Cloudiness 14%1%20%39%59%79%98%100%72%54%55%64%62%85%93%95%96%97%98%100%100%100%100%100%100%89%93%95%96%97%89%93%66%57%56%63%65%57%47%51%63%56%52%43%35%48%47%41%
Visibility 6 mi6 mi6 mi6 mi6 mi6 mi6 mi6 mi6 mi6 mi6 mi6 mi6 mi6 mi6 mi6 mi6 mi6 mi6 mi6 mi6 mi6 mi6 mi6 mi6 mi6 mi6 mi6 mi6 mi6 mi6 mi6 mi6 mi6 mi6 mi6 mi6 mi6 mi6 mi6 mi6 mi6 mi6 mi6 mi6 mi6 mi6 mi6 mi
Precipitation 0%0%0%0%0%0%0%0%0%0%0%0%0%16%16%8%16%18%30%39%38%42%51%47%38%2%2%5%12%29%54%95%100%100%100%100%80%2%2%2%0%0%0%0%0%0%0%0%
Humidity 72%71%67%60%52%43%34%33%33%36%41%50%60%66%72%68%67%63%65%74%81%92%95%95%93%86%83%83%73%60%60%70%62%72%78%87%90%94%96%94%92%97%98%98%98%98%97%97%
Dew Point 46°F46°F47°F47°F49°F49°F49°F49°F50°F53°F54°F55°F57°F56°F57°F56°F56°F56°F57°F58°F59°F61°F61°F61°F62°F62°F62°F61°F61°F60°F61°F63°F61°F63°F64°F63°F63°F62°F61°F59°F59°F58°F57°F56°F55°F54°F54°F53°F
Pressure 30.09"30.09"30.09"30.09"30.06"30.03"29.97"29.97"29.94"29.91"29.88"29.88"29.88"29.91"29.94"29.91"29.94"29.91"29.94"29.91"29.91"29.91"29.94"29.94"29.97"29.97"29.97"29.97"29.97"29.97"29.94"29.94"29.91"29.94"29.94"29.94"29.97"29.97"30"30"30"30"30"29.97"30"30.03"30.03"30.06"
Wind Speed 0.8 mph4.7 mph7.6 mph10.1 mph12.8 mph13.9 mph14.4 mph14.4 mph14 mph12.5 mph11.5 mph10.1 mph7.8 mph5.9 mph6 mph7.2 mph9.2 mph9.8 mph11.6 mph9.1 mph8.7 mph8.6 mph8 mph8.7 mph8.7 mph9.5 mph9.4 mph8.6 mph10 mph11.5 mph11.1 mph10 mph10.2 mph10.6 mph9.1 mph7 mph5.9 mph5.4 mph5.6 mph4.8 mph5.9 mph4.4 mph4.2 mph4 mph4.3 mph3.8 mph3.2 mph3.2 mph
Wind
Direction
156°
SSE
215°
SW
213°
SSW
207°
SSW
201°
SSW
204°
SSW
207°
SSW
214°
SW
220°
SW
229°
SW
220°
SW
225°
SW
225°
SW
237°
WSW
241°
WSW
234°
SW
234°
SW
234°
SW
248°
WSW
262°
W
266°
W
263°
W
263°
W
272°
W
268°
W
265°
W
262°
W
262°
W
266°
W
265°
W
261°
W
266°
W
273°
W
271°
W
267°
W
266°
W
269°
W
273°
W
271°
W
275°
W
266°
W
270°
W
278°
W
284°
WNW
290°
WNW
297°
WNW
301°
WNW
320°
NW

Daily Forecast

Date High Low Precip. Humidity
Today
May 9

Clouds
82 °F
51 °F
16%
43%
Monday
May 10

Rain
76 °F
61 °F
100%
60%
Tuesday
May 11

Clouds
76 °F
55 °F
12%
49%
Wednesday
May 12

Rain
58 °F
49 °F
92%
85%
Thursday
May 13

Rain
53 °F
46 °F
84%
66%
Friday
May 14

Clear
74 °F
44 °F
0%
36%
Saturday
May 15

Clouds
74 °F
49 °F
0%
39%
Sunday
May 16

Clear
76 °F
52 °F
0%
44%
Monday
May 17

Clear
78 °F
53 °F
0%
37%
Tuesday
May 18

Clouds
81 °F
53 °F
0%
34%
Wednesday
May 19

Clouds
77 °F
61 °F
3%
51%
Thursday
May 20

Clouds
85 °F
60 °F
0%
27%
Friday
May 21

Rain
84 °F
63 °F
44%
48%
Saturday
May 22

Rain
82 °F
67 °F
29%
55%
Sunday
May 23

Clouds
82 °F
57 °F
0%
36%
Monday
May 24

Rain
85 °F
63 °F
100%
55%

Temperature 8-14 Day Outlook



Precipitation 8-14 Day Outlook




Quick Links
Lake Lanier News
Lake Lanier Photos
Lake Lanier Videos




About Us
Contact Us
Site Map
Search Site
Advertise With Us
   
www.DiscoverLanier.com
THE LAKE LANIER WEBSITE

Copyright 2021, Lakes Online
Privacy    |    Legal